STARLINK-34333, 64264

Orbit data source: Space-Track

STARLINK-34333, 64264 is a payload satellite owned by SpaceX/Seattle (US) in LEO that was launched on Wed, 04 Jun 2025 UTC via an FALCON 9 launch vehicle from the Air Force Western Test Range (AFWTR). Payload-class satellites include a variety of spacecraft equipped with specific instruments for various scientific and technological missions. These include communications satellites like Starlink; space stations such as the ISS; scientific satellites like the Hubble; Earth observation satellites from companies like Planet Labs, Umbra, and HawkEye 360; GPS; miniature CubeSats for education and research; and military/defense satellites.

Loading next visibility...
Identifier
64264, 2025-120J
Orbit
LEO
Country
Flag of USUS
Related business
Manufacturer
SpaceX/Seattle
Mission
Operational Commercial Communications
Bus & Motor
STARLINK V2MO, Unknown motor
Mass
575 kg wet, ~530 kg dry
Launch date (UTC)
2025-06-04 (1 year ago)
Launch vehicle
FALCON 9
Launch site
Air Force Western Test Range (AFWTR)
Object type
Payload
Rocket body
Debris
Shape & HBR
Box + 2 Pan, 17.7 m
Radar Cross Section
36.964 m², Large (>1 m²)

Expand to show TLE details & history
Last TLE update: 1 day ago

TLE from 1 day ago
0 STARLINK-34333
1 64264U 25120J   26170.78975659  .00011806  00000-0  35995-3 0  9994
2 64264  53.1618 359.2213 0001386  91.0281 269.0881 15.34403209 59540
Epoch: 2026-06-19T18:57Z
TLE epoch observation values (Epoch: 2026-06-19T18:57:14.969Z)
Latitude
0.00003°
Longitude
166.89527°
Altitude
463.61 km
Speed
7.636 km/s
True Right ascension
23h 56m 53s
True Declination
0° 00' 00"
Sunlit
Object was in daylight at epoch
Visualization orbit readout
Latitude
Unknown
Longitude
Unknown
Altitude
Unknown
Speed
Unknown
Apparent Right ascension
Unknown
Apparent Declination
Unknown
Sunlit
N/A
Visualization observer readout
Local Sidereal Time
07:11:47
Azimuth
Unknown
Elevation
Unknown
Doppler factor
Unknown
Orbital elements
Apogee altitude
463.898 km
Perigee altitude
462.002 km
Semi-major axis
6,841.087 km
Eccentricity
0.00014
Inclination
53.1618°
RAAN
359.2213°
Arg. of periapsis
91.0281°
True anomaly
269.07222°
Mean anomaly
269.0881°
Eccentric anomaly
269.08016°
Mean motion
3.8358 °/min
Orbital period
93.85 mins
BSTAR
0.00035995
Loading maneuver chart data...
Computing Atmospheric mass density...
Loading historical data...
Loading historical data...
Loading historical data...
Loading historical data...
Loading historical data...
Loading historical data...
Loading historical data...

Documentation

Showing up to 5 results
|